[[{"header":{"parameterUnit":"m.s-1","parameterCategory":1,"la1":30.2991,"la2":30.254,"lo1":-89.0895,"lo2":-89.0444,"dy":0.0017,"dx":0.0017,"nx":28,"ny":28,"refTime":"2025-06-04T03:00:00:Z","depth":0,"parameterNumber":2,"parameterNumberName":"U-component_of_WINDS"},"data":[0,0,0,0,0,0,0,0,0,0,0,0,0,0,0,0,0,0,0,0,0,0,0,0,0,0,0,0,0,0,0,0,0,0,0,0,0,0,0,0,0,0,0,0,0,0,0,0,0,0,0,0,0,0,0,0,0,0,1.3752,1.3753,0,1.3812,1.3813,1.3814,1.3796,1.3795,1.3794,1.3793,1.3856,1.3858,1.3861,0,0,0,0,0,0,0,0,0,0,0,0,0,1.3623,1.3625,1.3752,1.3753,1.3754,1.3812,1.3813,1.3814,1.3796,1.3795,1.3793,1.3792,1.3855,1.3858,1.3862,0,0,0,0,0,0,0,0,0,0,0,0,0,1.3681,1.3626,1.3752,1.3752,1.3753,1.3812,1.3813,1.3814,1.3797,1.3795,1.3793,1.3791,1.3854,1.3858,1.3862,1.3926,0,0,1.3875,1.3877,0,0,0,0,0,0,0,0,1.3677,1.3685,1.3751,1.3752,1.3753,1.3795,1.3791,1.3852,1.3797,1.378,1.3792,1.379,1.3837,1.3843,1.3858,1.3929,1.3931,1.3875,1.3878,1.388,1.3881,0,0,0,0,0,0,0,1.3673,1.3683,1.3776,1.3752,1.3753,1.3749,1.3755,1.3802,1.3818,1.3781,1.378,1.3788,1.3837,1.3854,1.3859,1.3932,1.3875,1.3879,1.3882,1.3883,1.4056,1.4058,0,0,0,0,0,0,1.3669,1.368,1.3774,1.3778,1.371,1.3753,1.376,1.3783,1.3818,1.3821,1.3789,1.3786,1.3848,1.3854,1.3862,1.3937,1.388,1.3884,1.3886,1.4054,1.4057,1.4059,0,0,0,0,0,0,1.3666,1.3677,1.3772,1.3728,1.374,1.3757,1.3784,1.3786,1.3802,1.3824,1.3826,1.3803,1.3846,1.3856,1.3909,1.3939,1.3886,1.389,1.4052,1.4055,1.4058,1.4089,0,0,0,0,0,0,1.3662,1.3676,1.3701,1.3729,1.3743,1.3819,1.3786,1.3788,1.3809,1.3807,1.3838,1.3841,1.3846,1.3903,1.3914,1.3944,1.3893,1.4049,1.4053,1.4057,1.4086,1.4093,1.4099,0,0,0,0,0,1.3658,1.3708,1.3702,1.3714,1.3773,1.382,1.3828,1.3832,1.3812,1.3836,1.385,1.384,1.3934,1.3909,1.392,1.3952,1.4047,1.4052,1.4057,1.4082,1.4091,1.4099,0,0,0,0,0,0,1.3684,1.3712,1.3706,1.3767,1.3791,1.3817,1.3849,1.3842,1.3873,1.3869,1.3873,1.388,1.3935,1.3949,1.392,1.4015,1.3988,1.3995,1.4003,1.4012,1.4019,1.4014,1.3897,0,0,0,0,0,1.3697,1.3732,1.3755,1.3807,1.3819,1.3832,1.3852,1.3853,1.3879,1.3889,1.3907,1.3932,1.3967,1.3991,1.4025,1.4088,1.4093,1.4115,1.4122,1.4127,1.4133,1.4166,1.4176,1.4074,1.4074,1.4074,0,0,1.3724,1.3743,1.3766,1.3812,1.3831,1.3868,1.3841,1.3881,1.3908,1.3896,1.3947,1.396,1.3989,1.4047,1.4074,1.4061,1.4163,1.4133,1.4138,1.4141,1.4172,1.4181,1.419,1.4077,1.4076,1.4076,0,0,1.3791,1.381,1.3854,1.3874,1.3902,1.391,1.3921,1.3948,1.3956,1.4007,1.3998,1.403,1.4091,1.4112,1.413,1.4203,1.4195,1.4214,1.425,1.4282,1.429,1.4297,1.4322,1.4331,1.422,1.422,1.422,0,1.3821,1.3876,1.3878,1.3919,1.3939,1.3928,1.3972,1.3991,1.403,1.4044,1.4029,1.4103,1.4123,1.4184,1.4202,1.4218,1.4229,1.4211,1.4288,1.4295,1.4302,1.4326,1.4335,1.4222,1.4222,1.4222,1.4222,0,1.391,1.3948,1.3981,1.4017,1.404,1.4083,1.4091,1.4115,1.4113,1.4123,1.4174,1.4196,1.4233,1.4248,1.4248,1.431,1.4301,1.4287,1.426,1.4314,1.4336,1.4345,1.4225,1.4225,1.4224,1.4223,0,0,1.3997,1.4032,1.4044,1.406,1.409,1.4119,1.416,1.4196,1.4216,1.4242,1.4277,1.4327,1.4314,1.4335,1.4336,1.4365,1.4419,1.4347,1.4348,1.4359,1.4487,1.4497,1.4508,1.4414,1.4416,1.4417,1.4485,0,1.4066,1.4138,1.4141,1.4206,1.424,1.423,1.4266,1.4288,1.4298,1.4328,1.4339,1.4374,1.4355,1.4367,1.4394,1.4407,1.4445,1.4402,1.4445,1.4447,1.4438,1.4519,1.453,1.4593,1.4494,1.4495,1.4496,0,1.4157,1.4184,1.4253,1.4277,1.4291,1.4323,1.4355,1.4384,1.4409,1.4414,1.4436,1.4433,1.4475,1.4446,1.4503,1.4474,1.4492,1.45,1.4503,1.4507,1.4474,1.4524,1.4613,1.4622,1.451,1.4509,1.4508,0,1.4211,1.4266,1.4314,1.4327,1.4357,1.4379,1.4392,1.4415,1.4435,1.4463,1.4476,1.4509,1.4527,1.4552,1.4558,1.4537,1.4615,1.4587,1.4619,1.4619,1.4636,1.4635,1.4728,1.4649,1.4649,1.4648,1.4648,0,1.4287,1.4329,1.4338,1.4368,1.4414,1.4416,1.4463,1.4474,1.4494,1.4525,1.4519,1.4548,1.4554,1.4585,1.459,1.4635,1.4644,1.4649,1.4649,1.4649,1.4648,1.466,1.4655,1.4651,1.465,1.465,1.465,0,1.4356,1.4364,1.4415,1.4437,1.4444,1.4477,1.4496,1.4524,1.4532,1.4572,1.4581,1.4594,1.463,1.4638,1.4681,1.4684,1.4737,1.4734,1.4729,1.4728,1.476,1.4756,1.4863,1.4877,1.479,1.4791,1.4791,0,1.4404,1.4436,1.4461,1.4481,1.4495,1.4527,1.4548,1.4551,1.4573,1.4602,1.4626,1.4661,1.4688,1.4746,1.4759,1.4791,1.4788,1.4823,1.4793,1.4791,1.4787,1.4785,1.4787,1.4829,1.483,1.4831,1.4831,0,1.4487,1.4489,1.4518,1.4549,1.4573,1.4597,1.462,1.4637,1.4643,1.4668,1.4703,1.4725,1.4767,1.4801,1.4833,1.4847,1.484,1.4841,1.485,1.4849,1.4844,1.4846,1.4744,1.4838,1.4837,1.4837,1.4837,1.4836,1.4546,1.4573,1.4595,1.4627,1.4645,1.4666,1.4693,1.4704,1.4733,1.4767,1.4768,1.4806,1.4829,1.4871,1.4886,1.4916,1.4905,1.4919,1.4922,1.4925,1.4927,1.484,1.4922,1.4922,1.4922,1.4922,1.4922,0,1.4628,1.4641,1.4671,1.4702,1.4728,1.4718,1.4743,1.4765,1.4799,1.482,1.4847,1.4887,1.492,1.4935,1.4967,1.4988,1.4986,1.4996,1.4994,1.4997,1.4936,1.4924,1.4998,1.4998,1.4998,1.4998,1.4998,1.4998,1.4674,1.4718,1.4723,1.4776,1.4789,1.4826,1.484,1.486,1.4876,1.4921,1.4948,1.4957,1.4976,1.5009,1.5038,1.5042,1.5054,1.5066,1.5068,1.501,1.5002,1.4995,1.4984,1.5069,1.5069,1.5127,1.5128,1.5128]},{"header":{"parameterUnit":"m.s-1","parameterCategory":1,"la1":30.2991,"la2":30.254,"lo1":-89.0895,"lo2":-89.0444,"dy":0.0017,"dx":0.0017,"nx":28,"ny":28,"refTime":"2025-06-04T03:00:00:Z","depth":0,"parameterNumber":3,"parameterNumberName":"V-component_of_WINDS"},"data":[0,0,0,0,0,0,0,0,0,0,0,0,0,0,0,0,0,0,0,0,0,0,0,0,0,0,0,0,0,0,0,0,0,0,0,0,0,0,0,0,0,0,0,0,0,0,0,0,0,0,0,0,0,0,0,0,0,0,4.6728,4.673,0,4.6879,4.688,4.6882,4.6877,4.6875,4.6873,4.6871,4.7015,4.702,4.7026,0,0,0,0,0,0,0,0,0,0,0,0,0,4.6427,4.6432,4.6728,4.673,4.6732,4.6878,4.688,4.6882,4.6877,4.6875,4.6872,4.687,4.7013,4.7019,4.7026,0,0,0,0,0,0,0,0,0,0,0,0,0,4.6565,4.6434,4.6728,4.6747,4.6751,4.6878,4.688,4.6883,4.6878,4.6875,4.6872,4.6869,4.701,4.7019,4.7027,4.7142,0,0,4.7054,4.7057,0,0,0,0,0,0,0,0,4.6557,4.6576,4.6743,4.6746,4.675,4.6856,4.6827,4.6969,4.6879,4.6829,4.6871,4.6867,4.6964,4.6976,4.701,4.7149,4.7155,4.7054,4.7059,4.7063,4.7066,0,0,0,0,0,0,0,4.6548,4.657,4.6787,4.6745,4.675,4.6745,4.6762,4.6854,4.6911,4.6833,4.6833,4.6852,4.6965,4.7002,4.7014,4.7157,4.7054,4.7062,4.7067,4.707,4.7395,4.7398,0,0,0,0,0,0,4.6535,4.6562,4.6783,4.6792,4.6645,4.6753,4.6771,4.6825,4.6911,4.6921,4.6854,4.6851,4.6989,4.7004,4.7019,4.7158,4.7063,4.7071,4.7076,4.7392,4.7396,4.74,0,0,0,0,0,0,4.6529,4.6555,4.6777,4.6677,4.6705,4.6762,4.6822,4.683,4.6867,4.6927,4.6936,4.6882,4.6987,4.7007,4.7112,4.7163,4.7075,4.7083,4.7388,4.7393,4.7398,4.7438,0,0,0,0,0,0,4.652,4.6553,4.66,4.6678,4.671,4.687,4.6825,4.6835,4.6883,4.688,4.6955,4.6965,4.6986,4.7099,4.712,4.7173,4.709,4.7383,4.739,4.7396,4.7432,4.7444,4.7454,0,0,0,0,0,4.651,4.6603,4.6602,4.6629,4.677,4.6873,4.6891,4.6917,4.6887,4.6933,4.6971,4.6962,4.7154,4.711,4.7134,4.719,4.738,4.7388,4.7396,4.7427,4.7442,4.7453,0,0,0,0,0,0,4.6525,4.6613,4.6613,4.6735,4.6797,4.6872,4.6931,4.6931,4.7,4.6994,4.702,4.7037,4.7142,4.7176,4.7125,4.7305,4.7263,4.7276,4.7279,4.7293,4.7303,4.7292,4.7097,0,0,0,0,0,4.6543,4.6623,4.6694,4.6795,4.6826,4.6873,4.6919,4.6934,4.6998,4.7023,4.7068,4.7128,4.7201,4.7249,4.732,4.7437,4.7452,4.7488,4.7498,4.7507,4.7517,4.7581,4.7597,4.7425,4.7425,4.7425,0,0,4.658,4.6638,4.6686,4.6799,4.6849,4.6928,4.6895,4.698,4.7037,4.7034,4.7137,4.7173,4.724,4.7352,4.7403,4.7384,4.7568,4.7517,4.7523,4.7529,4.759,4.7607,4.7621,4.743,4.7429,4.7429,0,0,4.6687,4.6741,4.683,4.6882,4.6959,4.6989,4.7011,4.7086,4.7111,4.7215,4.7215,4.7282,4.7408,4.7457,4.7497,4.7624,4.7618,4.7646,4.7702,4.7763,4.7777,4.7789,4.7833,4.7849,4.7656,4.7657,4.7657,0,4.6723,4.6845,4.6875,4.6962,4.701,4.7015,4.7104,4.7151,4.7245,4.7277,4.7255,4.7414,4.746,4.7582,4.7614,4.7647,4.767,4.7637,4.7773,4.7786,4.7797,4.7839,4.7856,4.7659,4.7659,4.7659,4.7659,0,4.6884,4.6969,4.7031,4.7127,4.7182,4.7269,4.7309,4.7361,4.7371,4.7404,4.7509,4.7564,4.7646,4.7676,4.7686,4.78,4.7786,4.7768,4.7726,4.7816,4.7856,4.7872,4.7664,4.7663,4.7662,4.7661,0,0,4.7004,4.7117,4.7139,4.7182,4.7268,4.7332,4.7418,4.7502,4.7546,4.761,4.7681,4.7789,4.7774,4.782,4.7834,4.7889,4.7984,4.7864,4.7866,4.7884,4.8112,4.8124,4.8143,4.7981,4.7984,4.7987,4.8106,0,4.712,4.7278,4.7307,4.7442,4.752,4.7525,4.76,4.7658,4.7691,4.7758,4.7792,4.7868,4.7842,4.787,4.7924,4.7961,4.803,4.7953,4.8044,4.8047,4.8027,4.8164,4.8177,4.8287,4.8122,4.8125,4.8127,0,4.7277,4.735,4.7494,4.7569,4.7603,4.767,4.7749,4.7815,4.788,4.7899,4.7952,4.7961,4.8047,4.8002,4.812,4.8067,4.8106,4.8129,4.8134,4.8143,4.8092,4.8175,4.8323,4.8339,4.8152,4.815,4.8148,0,4.7349,4.7482,4.7586,4.7623,4.7714,4.7761,4.78,4.7863,4.7912,4.7979,4.8011,4.8086,4.8127,4.8184,4.8212,4.8177,4.8327,4.8285,4.8343,4.8342,4.8373,4.8371,4.8529,4.84,4.84,4.84,4.8399,0,4.7475,4.7562,4.762,4.7684,4.7781,4.7813,4.7907,4.7945,4.8001,4.807,4.8078,4.8141,4.8174,4.8241,4.8263,4.8357,4.8375,4.8391,4.8395,4.839,4.8388,4.8415,4.8408,4.8404,4.8403,4.8402,4.8402,0,4.7571,4.7614,4.7727,4.7805,4.7827,4.7895,4.796,4.802,4.8052,4.8139,4.8161,4.821,4.829,4.8324,4.8421,4.8435,4.8542,4.8541,4.8521,4.8522,4.8579,4.8572,4.8758,4.8784,4.864,4.8641,4.8642,0,4.7648,4.7717,4.7803,4.7851,4.7893,4.797,4.8021,4.8054,4.8106,4.8186,4.8236,4.8317,4.8383,4.8509,4.8552,4.8626,4.8626,4.8686,4.8637,4.8629,4.8626,4.8621,4.8627,4.8694,4.8696,4.8697,4.8698,0,4.778,4.7799,4.7873,4.7956,4.8017,4.8082,4.8145,4.8183,4.8226,4.8283,4.8367,4.8418,4.8519,4.8598,4.8675,4.8711,4.8711,4.8714,4.8731,4.8725,4.8711,4.8719,4.8545,4.8709,4.8708,4.8707,4.8706,4.8706,4.7869,4.793,4.8001,4.8083,4.8135,4.8195,4.8255,4.8297,4.8369,4.8456,4.847,4.8559,4.8621,4.8725,4.8764,4.8832,4.8816,4.8842,4.8848,4.8853,4.8857,4.8701,4.8846,4.8846,4.8845,4.8845,4.8845,0,4.8001,4.8047,4.8123,4.8214,4.8278,4.8277,4.8346,4.8399,4.8479,4.8539,4.8605,4.87,4.8777,4.8827,4.8904,4.8948,4.895,4.8967,4.8964,4.8972,4.8866,4.8844,4.8965,4.8965,4.8965,4.8965,4.8965,4.8964,4.8077,4.8179,4.8206,4.8334,4.8378,4.8469,4.8509,4.8562,4.8611,4.8718,4.8784,4.8817,4.8872,4.8953,4.9023,4.9035,4.9062,4.908,4.9091,4.8992,4.8979,4.8967,4.8946,4.9086,4.9087,4.9191,4.9192,4.9193]}]]